Regional Weather Roundup
Issued by NWS Mobile, AL

Home | Current Version | Previous Version | Text Only | Print | Product List | Glossary On
Versions: 1 2 3 4 5 6 7 8 9 10 11 12 13 14 15 16 17 18 19 20 21 22 23 24 25 26 27 28 29 30 31 32 33 34 35 36 37 38 39 40 41 42 43 44 45 46 47
888
ASUS44 KMOB 251512
RWRMOB
REGIONAL WEATHER ROUNDUP
NATIONAL WEATHER SERVICE MOBILE AL
1000 AM CDT WED MAY 25 2016

NOTE: "FAIR" INDICATES FEW OR NO CLOUDS BELOW 12,000 FEET WITH NO
      SIGNIFICANT WEATHER AND/OR OBSTRUCTIONS TO VISIBILITY.

  * THESE STATIONS ARE PART OF THE UNIVERSITY OF SOUTH ALABAMA
    MESONET AND ARE NOT UNDER NWS OR FAA QUALITY CONTROL.

ALZ061>064-251600-
COASTAL ALABAMA

CITY           SKY/WX    TMP DP  RH WIND       PRES   REMARKS
MOBILE REG APT PTSUNNY   79  69  71 E10       30.20R
BROOKLEY FIELD MOSUNNY   79  70  74 SE8       30.20R
USA CAMPUS*    NOT AVBL
DOG RIVER*     NOT AVBL


CITY           SKY/WX    TMP DP  RH WIND       PRES   REMARKS
MOUNT VERNON*  NOT AVBL
SARALAND*      NOT AVBL
BAY MINETTE*   NOT AVBL
LOXLEY*        NOT AVBL
ROBERTSDALE*   NOT AVBL
FAIRHOPE*      NOT AVBL
ELBERTA*       NOT AVBL
FOLEY*         NOT AVBL
GRAND BAY*     NOT AVBL
DAUPHIN ISLND* NOT AVBL
BON SCOUR NWR* NOT AVBL
GULF SHORES    SUNNY     79  67  66 SE9G16    30.19F

$$

ALZ051>060-251600-
INTERIOR SOUTHWEST AND SOUTH CENTRAL ALABAMA

CITY           SKY/WX    TMP DP  RH WIND       PRES   REMARKS
GREENVILLE     CLOUDY    81  57  43 CALM      30.22R
EVERGREEN      CLOUDY    77  65  66 CALM      30.22S
CASTLEBERRY*   NOT AVBL
ATMORE*        NOT AVBL
DIXIE*         NOT AVBL
ANDALUSIA/OPP  MOSUNNY   81  63  54 CALM      30.23R
ANDALUSIA*     NOT AVBL
FLORALA APT    PTSUNNY   79  60  52 VRB3      30.24R
FLORALA*       NOT AVBL

$$

FLZ001>006-251600-
WESTERN FLORIDA PANHANDLE

CITY           SKY/WX    TMP DP  RH WIND       PRES   REMARKS
PENSACOLA      PTSUNNY   78  66  66 E7        30.21R
NAS PENSACOLA  PTSUNNY   79  69  71 E10       30.19S
MILTON         PTSUNNY   77  64  64 E6        30.21S
WHTNG S FIELD  CLOUDY    80  64  58 E7        30.21S


CITY           SKY/WX    TMP DP  RH WIND       PRES   REMARKS
WALNUT HILL*   NOT AVBL
JAY*           NOT AVBL
DUKE FIELD     PTSUNNY   82  59  46 SE6       30.20R
CRESTVIEW      PTSUNNY   81  62  52 CALM      30.23R
VALPARAISO     MOSUNNY   80  59  48 E6        30.20R
DESTIN         MOSUNNY   83  65  54 NE3       30.21R

$$

MSZ076-079-251600-
INTERIOR SOUTHEAST MISSISSIPPI

CITY           SKY/WX    TMP DP  RH WIND       PRES   REMARKS
LEAKESVILLE*   NOT AVBL
AGRICOLA*      NOT AVBL

$$

MARINE OBSERVATIONS

STATION/POSITION TIME  TEMP    WIND        PRES    WAVE
                       AIR SEA DIR/SP/G            HT/PER
                 (UTC) (F)     (DEG/KT/KT) (MB)    (FT/S)
PASCAGOULA       1400   78     140/  8/ 10 1021.6R
PETIT BOIS ISLND 1400   78     130/  8/ 10 1022.4R
GRAND BAY        1300   77     150/  8     1023.0R
KATRINA CUT      1400   77     140/ 10     1022.7R
CEDAR POINT      1400   78     130/  8     1022.0R
E DAUPHIN ISLAND 1400   77     130/ 10/ 11 1021.9R
MIDDLE BAY LIGHT 1400   75      90/  9     1022.0S
USCG MOBILE BAY  1400   75 80  120/ 11/ 12 1022.6R
STATE DOCKS      1300   76 79              1021.9R
MEAHER PARK      1400   75     110/  5     1021.7S
WEEKS BAY        1300   70                   N/A
FORT MORGAN      1418   77     140/ 10/ 11 1021.8R
12 S ORANGE BCH  1450   77 78  110/  6/  8 1021.9R   1/ 3
PENSACOLA BAY    1300      80   80/  3/  5 1021.5R
64 S DAUPHIN ISL 1500   77 78  120/ 10/ 12 1021.5R

$$

SELECTED LOCATIONS ACROSS THE REGION

CITY           SKY/WX    TMP DP  RH WIND       PRES   REMARKS
NEW ORLEANS    PTSUNNY   86  73  65 S10       30.14R
GULFPORT       PTSUNNY   81  71  71 SE12      30.16S
PASCAGOULA AP  PTSUNNY   79  67  66 S9        30.18S
PASCAGOULA*    NOT AVBL
HATTIESBURG    CLOUDY    80  70  71 S10       30.17F
LAUREL         PTSUNNY   77  68  73 SE8       30.19S
MERIDIAN       PTSUNNY   72  66  81 S7        30.19F
JACKSON        CLOUDY    74  69  85 S8        30.16S
MONTGOMERY     SUNNY     83  61  47 CALM      30.22R
TROY           SUNNY     81  62  52 VRB6      30.24R
KINSTON*       NOT AVBL
GENEVA*        NOT AVBL
ASHFORD*       NOT AVBL
DOTHAN         SUNNY     80  58  46 E6        30.26R
PANAMA CITY    MOSUNNY   83  67  58 SE10      30.19R

$$





USA.gov is the U.S. government's official web portal to all federal, state and local government web resources and services.